owner,sensor,date,latitude,longitude,vertical_datum,direction_of_sea_water_velocity,sea_water_speed,upward_sea_water_velocity,qcFlag 
TABS,ioos:station:wmo:42048:1,1997-08-01T00:00:00Z,27.9396,-96.8429,2.0,15.80471105,25.70161279,-99999.0,'11111222,11111222,99999999' 
TABS,ioos:station:wmo:42048:1,1997-08-01T00:30:00Z,27.9396,-96.8429,2.0,8.619678429,26.82295286,-99999.0,'11111222,11111222,99999999' 
TABS,ioos:station:wmo:42048:1,1997-08-01T01:00:00Z,27.9396,-96.8429,2.0,11.25968019,26.7345619,-99999.0,'11111222,11111222,99999999' 
TABS,ioos:station:wmo:42048:1,1997-08-01T01:30:00Z,27.9396,-96.8429,2.0,13.75907444,30.06264293,-99999.0,'11111222,11111222,99999999' 
TABS,ioos:station:wmo:42048:1,1997-08-01T02:00:00Z,27.9396,-96.8429,2.0,15.78640065,30.65624896,-99999.0,'11111222,11111222,99999999' 
TABS,ioos:station:wmo:42048:1,1997-08-01T02:30:00Z,27.9396,-96.8429,2.0,10.64971949,30.6275301,-99999.0,'11111222,11111222,99999999' 
TABS,ioos:station:wmo:42048:1,1997-08-01T03:00:00Z,27.9396,-96.8429,2.0,12.96726412,31.1955125,-99999.0,'11111222,11111222,99999999' 
TABS,ioos:station:wmo:42048:1,1997-08-01T03:30:00Z,27.9396,-96.8429,2.0,15.63522264,33.72800765,-99999.0,'11111222,11111222,99999999' 
TABS,ioos:station:wmo:42048:1,1997-08-01T04:00:00Z,27.9396,-96.8429,2.0,16.80418813,32.99908635,-99999.0,'11111222,11111222,99999999' 
TABS,ioos:station:wmo:42048:1,1997-08-01T04:30:00Z,27.9396,-96.8429,2.0,16.12711991,31.64528559,-99999.0,'11111222,11111222,99999999' 
TABS,ioos:station:wmo:42048:1,1997-08-01T05:00:00Z,27.9396,-96.8429,2.0,18.42946181,32.04335969,-99999.0,'11111222,11111222,99999999' 
TABS,ioos:station:wmo:42048:1,1997-08-01T05:30:00Z,27.9396,-96.8429,2.0,24.32699055,34.00970744,-99999.0,'11111222,11111222,99999999' 
TABS,ioos:station:wmo:42048:1,1997-08-01T06:00:00Z,27.9396,-96.8429,2.0,24.33364281,34.34074257,-99999.0,'11111222,11111222,99999999' 
TABS,ioos:station:wmo:42048:1,1997-08-01T06:30:00Z,27.9396,-96.8429,2.0,30.19309547,33.78313337,-99999.0,'11111222,11111222,99999999' 
TABS,ioos:station:wmo:42048:1,1997-08-01T07:00:00Z,27.9396,-96.8429,2.0,30.6645768,34.46997099,-99999.0,'11111222,11111222,99999999' 
TABS,ioos:station:wmo:42048:1,1997-08-01T07:30:00Z,27.9396,-96.8429,2.0,37.63695167,31.22879761,-99999.0,'11111222,11111222,99999999' 
TABS,ioos:station:wmo:42048:1,1997-08-01T08:00:00Z,27.9396,-96.8429,2.0,38.08809953,30.67093086,-99999.0,'11111222,11111222,99999999' 
TABS,ioos:station:wmo:42048:1,1997-08-01T08:30:00Z,27.9396,-96.8429,2.0,38.89819382,29.66858608,-99999.0,'11111222,11111222,99999999' 
TABS,ioos:station:wmo:42048:1,1997-08-01T09:00:00Z,27.9396,-96.8429,2.0,41.68290061,30.91701312,-99999.0,'11111222,11111222,99999999' 
TABS,ioos:station:wmo:42048:1,1997-08-01T09:30:00Z,27.9396,-96.8429,2.0,40.90109407,27.99525853,-99999.0,'11111222,11111222,99999999' 
TABS,ioos:station:wmo:42048:1,1997-08-01T10:00:00Z,27.9396,-96.8429,2.0,46.06581383,28.13357425,-99999.0,'11111222,11111222,99999999' 
TABS,ioos:station:wmo:42048:1,1997-08-01T10:30:00Z,27.9396,-96.8429,2.0,49.73024075,28.12550444,-99999.0,'11111222,11111222,99999999' 
TABS,ioos:station:wmo:42048:1,1997-08-01T11:00:00Z,27.9396,-96.8429,2.0,51.59832178,25.66117106,-99999.0,'11111222,11111222,99999999' 
TABS,ioos:station:wmo:42048:1,1997-08-01T11:30:00Z,27.9396,-96.8429,2.0,50.66977979,25.62362191,-99999.0,'11111222,11111222,99999999' 
TABS,ioos:station:wmo:42048:1,1997-08-01T12:00:00Z,27.9396,-96.8429,2.0,46.44969988,24.87690696,-99999.0,'11111222,11111222,99999999' 
TABS,ioos:station:wmo:42048:1,1997-08-01T12:30:00Z,27.9396,-96.8429,2.0,48.96413214,25.87837901,-99999.0,'11111222,11111222,99999999' 
TABS,ioos:station:wmo:42048:1,1997-08-01T13:00:00Z,27.9396,-96.8429,2.0,45.28495339,19.91237304,-99999.0,'11111222,11111222,99999999' 
TABS,ioos:station:wmo:42048:1,1997-08-01T13:30:00Z,27.9396,-96.8429,2.0,50.50766751,20.84983693,-99999.0,'11111222,11111222,99999999' 
TABS,ioos:station:wmo:42048:1,1997-08-01T14:00:00Z,27.9396,-96.8429,2.0,42.21651486,19.51088414,-99999.0,'11111222,11111222,99999999' 
TABS,ioos:station:wmo:42048:1,1997-08-01T14:30:00Z,27.9396,-96.8429,2.0,30.96389458,18.25087943,-99999.0,'11111222,11111222,99999999' 
TABS,ioos:station:wmo:42048:1,1997-08-01T15:00:00Z,27.9396,-96.8429,2.0,23.17665045,10.21432817,-99999.0,'11111222,11111222,99999999' 
TABS,ioos:station:wmo:42048:1,1997-08-01T15:30:00Z,27.9396,-96.8429,2.0,24.70560453,10.33607759,-99999.0,'11111222,11111222,99999999' 
TABS,ioos:station:wmo:42048:1,1997-08-01T16:00:00Z,27.9396,-96.8429,2.0,14.63308463,10.01483899,-99999.0,'11111222,11111222,99999999' 
TABS,ioos:station:wmo:42048:1,1997-08-01T16:30:00Z,27.9396,-96.8429,2.0,357.9024068,8.195492664,-99999.0,'11133222,11111222,99999999' 
TABS,ioos:station:wmo:42048:1,1997-08-01T17:00:00Z,27.9396,-96.8429,2.0,9.763347519,13.15045627,-99999.0,'11111222,11111222,99999999' 
TABS,ioos:station:wmo:42048:1,1997-08-01T17:30:00Z,27.9396,-96.8429,2.0,16.23600761,15.98760145,-99999.0,'11111222,11111222,99999999' 
TABS,ioos:station:wmo:42048:1,1997-08-01T18:00:00Z,27.9396,-96.8429,2.0,2.246925731,11.47882398,-99999.0,'11111222,11111222,99999999' 
TABS,ioos:station:wmo:42048:1,1997-08-01T18:30:00Z,27.9396,-96.8429,2.0,325.6097412,9.755131983,-99999.0,'11133222,11111222,99999999' 
TABS,ioos:station:wmo:42048:1,1997-08-01T19:00:00Z,27.9396,-96.8429,2.0,336.0328233,11.74247844,-99999.0,'11111222,11111222,99999999' 
TABS,ioos:station:wmo:42048:1,1997-08-01T19:30:00Z,27.9396,-96.8429,2.0,335.75236,18.14039966,-99999.0,'11111222,11111222,99999999' 
TABS,ioos:station:wmo:42048:1,1997-08-01T20:00:00Z,27.9396,-96.8429,2.0,338.4608915,17.45925829,-99999.0,'11111222,11111222,99999999' 
TABS,ioos:station:wmo:42048:1,1997-08-01T20:30:00Z,27.9396,-96.8429,2.0,344.1127327,24.47491777,-99999.0,'11111222,11111222,99999999' 
TABS,ioos:station:wmo:42048:1,1997-08-01T21:00:00Z,27.9396,-96.8429,2.0,357.9759092,25.19572384,-99999.0,'11111222,11111222,99999999' 
TABS,ioos:station:wmo:42048:1,1997-08-01T21:30:00Z,27.9396,-96.8429,2.0,2.738550368,24.90844234,-99999.0,'11111222,11111222,99999999' 
TABS,ioos:station:wmo:42048:1,1997-08-01T22:00:00Z,27.9396,-96.8429,2.0,18.5285837,29.07718178,-99999.0,'11111222,11111222,99999999' 
TABS,ioos:station:wmo:42048:1,1997-08-01T22:30:00Z,27.9396,-96.8429,2.0,18.09019049,38.87142138,-99999.0,'11111222,11111222,99999999' 
TABS,ioos:station:wmo:42048:1,1997-08-01T23:00:00Z,27.9396,-96.8429,2.0,20.67342377,43.47970676,-99999.0,'11111222,11111222,99999999' 
TABS,ioos:station:wmo:42048:1,1997-08-01T23:30:00Z,27.9396,-96.8429,2.0,25.36410506,41.38976806,-99999.0,'11111222,11111222,99999999' 
TABS,ioos:station:wmo:42048:1,1997-08-02T00:00:00Z,27.9396,-96.8429,2.0,22.56944473,39.2130922,-99999.0,'11111222,11111222,99999999' 
TABS,ioos:station:wmo:42048:1,1997-08-02T00:30:00Z,27.9396,-96.8429,2.0,28.1099852,36.99353727,-99999.0,'11111222,11111222,99999999' 
TABS,ioos:station:wmo:42048:1,1997-08-02T01:00:00Z,27.9396,-96.8429,2.0,34.23725515,38.92508703,-99999.0,'11111222,11111222,99999999' 
TABS,ioos:station:wmo:42048:1,1997-08-02T01:30:00Z,27.9396,-96.8429,2.0,38.15168651,39.78995476,-99999.0,'11111222,11111222,99999999' 
TABS,ioos:station:wmo:42048:1,1997-08-02T02:00:00Z,27.9396,-96.8429,2.0,40.94063346,38.65551578,-99999.0,'11111222,11111222,99999999' 
TABS,ioos:station:wmo:42048:1,1997-08-02T02:30:00Z,27.9396,-96.8429,2.0,45.2929254,41.50771013,-99999.0,'11111222,11111222,99999999' 
TABS,ioos:station:wmo:42048:1,1997-08-02T03:00:00Z,27.9396,-96.8429,2.0,49.77434347,38.0612664,-99999.0,'11111222,11111222,99999999' 
TABS,ioos:station:wmo:42048:1,1997-08-02T03:30:00Z,27.9396,-96.8429,2.0,52.77978787,38.91672777,-99999.0,'11111222,11111222,99999999' 
TABS,ioos:station:wmo:42048:1,1997-08-02T04:00:00Z,27.9396,-96.8429,2.0,54.48802719,38.99294936,-99999.0,'11111222,11111222,99999999' 
TABS,ioos:station:wmo:42048:1,1997-08-02T04:30:00Z,27.9396,-96.8429,2.0,58.25106432,37.66634174,-99999.0,'11111222,11111222,99999999' 
TABS,ioos:station:wmo:42048:1,1997-08-02T05:00:00Z,27.9396,-96.8429,2.0,56.6412739,35.49863237,-99999.0,'11111222,11111222,99999999' 
TABS,ioos:station:wmo:42048:1,1997-08-02T05:30:00Z,27.9396,-96.8429,2.0,61.65346111,36.39394593,-99999.0,'11111222,11111222,99999999' 
TABS,ioos:station:wmo:42048:1,1997-08-02T06:00:00Z,27.9396,-96.8429,2.0,58.6394414,36.64326678,-99999.0,'11111222,11111222,99999999' 
TABS,ioos:station:wmo:42048:1,1997-08-02T06:30:00Z,27.9396,-96.8429,2.0,57.1414564,34.59474671,-99999.0,'11111222,11111222,99999999' 
TABS,ioos:station:wmo:42048:1,1997-08-02T07:00:00Z,27.9396,-96.8429,2.0,60.15437861,33.83796832,-99999.0,'11111222,11111222,99999999' 
TABS,ioos:station:wmo:42048:1,1997-08-02T07:30:00Z,27.9396,-96.8429,2.0,53.76021392,35.28613325,-99999.0,'11111222,11111222,99999999' 
TABS,ioos:station:wmo:42048:1,1997-08-02T08:00:00Z,27.9396,-96.8429,2.0,58.39139294,31.84415959,-99999.0,'11111222,11111222,99999999' 
TABS,ioos:station:wmo:42048:1,1997-08-02T08:30:00Z,27.9396,-96.8429,2.0,60.19926826,31.7715124,-99999.0,'11111222,11111222,99999999' 
TABS,ioos:station:wmo:42048:1,1997-08-02T09:00:00Z,27.9396,-96.8429,2.0,63.31918432,33.18331659,-99999.0,'11111222,11111222,99999999' 
TABS,ioos:station:wmo:42048:1,1997-08-02T09:30:00Z,27.9396,-96.8429,2.0,70.29152316,29.59358038,-99999.0,'11111222,11111222,99999999' 
TABS,ioos:station:wmo:42048:1,1997-08-02T10:00:00Z,27.9396,-96.8429,2.0,90.46130763,18.63060385,-99999.0,'11111222,11111222,99999999' 
TABS,ioos:station:wmo:42048:1,1997-08-02T10:30:00Z,27.9396,-96.8429,2.0,132.4858152,14.34686377,-99999.0,'11111222,11111222,99999999' 
TABS,ioos:station:wmo:42048:1,1997-08-02T11:00:00Z,27.9396,-96.8429,2.0,169.27507,14.40155894,-99999.0,'11111222,11111222,99999999' 
TABS,ioos:station:wmo:42048:1,1997-08-02T11:30:00Z,27.9396,-96.8429,2.0,170.1222455,10.43467776,-99999.0,'11111222,11111222,99999999' 
TABS,ioos:station:wmo:42048:1,1997-08-02T12:00:00Z,27.9396,-96.8429,2.0,175.1228947,8.821938562,-99999.0,'11133222,11111222,99999999' 
TABS,ioos:station:wmo:42048:1,1997-08-02T12:30:00Z,27.9396,-96.8429,2.0,186.3198745,9.447417637,-99999.0,'11133222,11111222,99999999' 
TABS,ioos:station:wmo:42048:1,1997-08-02T13:00:00Z,27.9396,-96.8429,2.0,203.5893273,11.5447304,-99999.0,'11111222,11111222,99999999' 
TABS,ioos:station:wmo:42048:1,1997-08-02T13:30:00Z,27.9396,-96.8429,2.0,213.5280897,13.75939316,-99999.0,'11111222,11111222,99999999' 
TABS,ioos:station:wmo:42048:1,1997-08-02T14:00:00Z,27.9396,-96.8429,2.0,222.8286554,13.81263914,-99999.0,'11111222,11111222,99999999' 
TABS,ioos:station:wmo:42048:1,1997-08-02T14:30:00Z,27.9396,-96.8429,2.0,231.3281395,15.26754728,-99999.0,'11111222,11111222,99999999' 
TABS,ioos:station:wmo:42048:1,1997-08-02T15:00:00Z,27.9396,-96.8429,2.0,234.3209571,15.58536814,-99999.0,'11111222,11111222,99999999' 
TABS,ioos:station:wmo:42048:1,1997-08-02T15:30:00Z,27.9396,-96.8429,2.0,244.6880713,21.26115002,-99999.0,'11111222,11111222,99999999' 
TABS,ioos:station:wmo:42048:1,1997-08-02T16:00:00Z,27.9396,-96.8429,2.0,253.2173857,21.16127832,-99999.0,'11111222,11111222,99999999' 
TABS,ioos:station:wmo:42048:1,1997-08-02T16:30:00Z,27.9396,-96.8429,2.0,254.6754195,22.55180924,-99999.0,'11111222,11111222,99999999' 
TABS,ioos:station:wmo:42048:1,1997-08-02T17:00:00Z,27.9396,-96.8429,2.0,257.8710257,24.84456681,-99999.0,'11111222,11111222,99999999' 
TABS,ioos:station:wmo:42048:1,1997-08-02T17:30:00Z,27.9396,-96.8429,2.0,263.012052,23.26278143,-99999.0,'11111222,11111222,99999999' 
TABS,ioos:station:wmo:42048:1,1997-08-02T18:00:00Z,27.9396,-96.8429,2.0,261.7412198,25.89855787,-99999.0,'11111222,11111222,99999999' 
TABS,ioos:station:wmo:42048:1,1997-08-02T18:30:00Z,27.9396,-96.8429,2.0,267.3457827,28.94103834,-99999.0,'11111222,11111222,99999999' 
TABS,ioos:station:wmo:42048:1,1997-08-02T19:00:00Z,27.9396,-96.8429,2.0,261.8598818,25.28472464,-99999.0,'11111222,11111222,99999999' 
TABS,ioos:station:wmo:42048:1,1997-08-02T19:30:00Z,27.9396,-96.8429,2.0,258.5529703,26.30317091,-99999.0,'11111222,11111222,99999999' 
TABS,ioos:station:wmo:42048:1,1997-08-02T20:00:00Z,27.9396,-96.8429,2.0,248.3987411,23.87685281,-99999.0,'11111222,11111222,99999999' 
TABS,ioos:station:wmo:42048:1,1997-08-02T20:30:00Z,27.9396,-96.8429,2.0,250.3443509,26.57864744,-99999.0,'11111222,11111222,99999999' 
TABS,ioos:station:wmo:42048:1,1997-08-02T21:00:00Z,27.9396,-96.8429,2.0,245.6477619,24.20336547,-99999.0,'11111222,11111222,99999999' 
TABS,ioos:station:wmo:42048:1,1997-08-02T21:30:00Z,27.9396,-96.8429,2.0,244.9126016,25.66070927,-99999.0,'11111222,11111222,99999999' 
TABS,ioos:station:wmo:42048:1,1997-08-02T22:00:00Z,27.9396,-96.8429,2.0,247.0067258,26.70133517,-99999.0,'11111222,11111222,99999999' 
TABS,ioos:station:wmo:42048:1,1997-08-02T22:30:00Z,27.9396,-96.8429,2.0,247.9102074,27.33655611,-99999.0,'11111222,11111222,99999999' 
TABS,ioos:station:wmo:42048:1,1997-08-02T23:00:00Z,27.9396,-96.8429,2.0,249.4079143,30.08192148,-99999.0,'11111222,11111222,99999999' 
TABS,ioos:station:wmo:42048:1,1997-08-02T23:30:00Z,27.9396,-96.8429,2.0,248.9487923,27.78426353,-99999.0,'11111222,11111222,99999999' 
TABS,ioos:station:wmo:42048:1,1997-08-03T00:00:00Z,27.9396,-96.8429,2.0,250.1746304,27.24471508,-99999.0,'11111222,11111222,99999999' 
TABS,ioos:station:wmo:42048:1,1997-08-03T00:30:00Z,27.9396,-96.8429,2.0,253.9223022,27.44333981,-99999.0,'11111222,11111222,99999999' 
TABS,ioos:station:wmo:42048:1,1997-08-03T01:00:00Z,27.9396,-96.8429,2.0,251.7550237,28.55552486,-99999.0,'11111222,11111222,99999999' 
TABS,ioos:station:wmo:42048:1,1997-08-03T01:30:00Z,27.9396,-96.8429,2.0,256.0483768,27.7897625,-99999.0,'11111222,11111222,99999999' 
TABS,ioos:station:wmo:42048:1,1997-08-03T02:00:00Z,27.9396,-96.8429,2.0,255.3846938,28.33688233,-99999.0,'11111222,11111222,99999999' 
TABS,ioos:station:wmo:42048:1,1997-08-03T02:30:00Z,27.9396,-96.8429,2.0,255.5917932,26.92687134,-99999.0,'11111222,11111222,99999999' 
TABS,ioos:station:wmo:42048:1,1997-08-03T03:00:00Z,27.9396,-96.8429,2.0,248.4952283,27.22515932,-99999.0,'11111222,11111222,99999999' 
TABS,ioos:station:wmo:42048:1,1997-08-03T03:30:00Z,27.9396,-96.8429,2.0,246.6109693,28.89413954,-99999.0,'11111222,11111222,99999999' 
TABS,ioos:station:wmo:42048:1,1997-08-03T04:00:00Z,27.9396,-96.8429,2.0,245.7701139,29.41083644,-99999.0,'11111222,11111222,99999999' 
TABS,ioos:station:wmo:42048:1,1997-08-03T04:30:00Z,27.9396,-96.8429,2.0,242.1014284,31.52367523,-99999.0,'11111222,11111222,99999999' 
TABS,ioos:station:wmo:42048:1,1997-08-03T05:00:00Z,27.9396,-96.8429,2.0,243.9142104,31.52071858,-99999.0,'11111222,11111222,99999999' 
TABS,ioos:station:wmo:42048:1,1997-08-03T05:30:00Z,27.9396,-96.8429,2.0,241.3783504,29.53959038,-99999.0,'11111222,11111222,99999999' 
TABS,ioos:station:wmo:42048:1,1997-08-03T06:00:00Z,27.9396,-96.8429,2.0,248.51492,30.90760424,-99999.0,'11111222,11111222,99999999' 
TABS,ioos:station:wmo:42048:1,1997-08-03T06:30:00Z,27.9396,-96.8429,2.0,236.3095903,26.32052431,-99999.0,'11111222,11111222,99999999' 
TABS,ioos:station:wmo:42048:1,1997-08-03T07:00:00Z,27.9396,-96.8429,2.0,236.5873852,25.16981724,-99999.0,'11111222,11111222,99999999' 
TABS,ioos:station:wmo:42048:1,1997-08-03T07:30:00Z,27.9396,-96.8429,2.0,244.9619753,24.99917799,-99999.0,'11111222,11111222,99999999' 
TABS,ioos:station:wmo:42048:1,1997-08-03T08:00:00Z,27.9396,-96.8429,2.0,238.5170611,22.53755311,-99999.0,'11111222,11111222,99999999' 
TABS,ioos:station:wmo:42048:1,1997-08-03T08:30:00Z,27.9396,-96.8429,2.0,240.3612647,18.6846247,-99999.0,'11111222,11111222,99999999' 
TABS,ioos:station:wmo:42048:1,1997-08-03T09:00:00Z,27.9396,-96.8429,2.0,242.1528763,11.79597389,-99999.0,'11111222,11111222,99999999' 
TABS,ioos:station:wmo:42048:1,1997-08-03T09:30:00Z,27.9396,-96.8429,2.0,236.7555775,16.03409492,-99999.0,'11111222,11111222,99999999' 
TABS,ioos:station:wmo:42048:1,1997-08-03T10:00:00Z,27.9396,-96.8429,2.0,231.7475672,22.3865138,-99999.0,'11111222,11111222,99999999' 
TABS,ioos:station:wmo:42048:1,1997-08-03T10:30:00Z,27.9396,-96.8429,2.0,222.9221559,23.40647774,-99999.0,'11111222,11111222,99999999' 
TABS,ioos:station:wmo:42048:1,1997-08-03T11:00:00Z,27.9396,-96.8429,2.0,225.530693,22.12632143,-99999.0,'11111222,11111222,99999999' 
TABS,ioos:station:wmo:42048:1,1997-08-03T11:30:00Z,27.9396,-96.8429,2.0,226.5211779,19.70694294,-99999.0,'11111222,11111222,99999999' 
TABS,ioos:station:wmo:42048:1,1997-08-03T12:00:00Z,27.9396,-96.8429,2.0,218.9013289,21.83172462,-99999.0,'11111222,11111222,99999999' 
TABS,ioos:station:wmo:42048:1,1997-08-03T12:30:00Z,27.9396,-96.8429,2.0,215.1145458,23.31293632,-99999.0,'11111222,11111222,99999999' 
TABS,ioos:station:wmo:42048:1,1997-08-03T13:00:00Z,27.9396,-96.8429,2.0,219.4041721,24.87433416,-99999.0,'11111222,11111222,99999999' 
TABS,ioos:station:wmo:42048:1,1997-08-03T13:30:00Z,27.9396,-96.8429,2.0,216.0166855,24.31869446,-99999.0,'11111222,11111222,99999999' 
TABS,ioos:station:wmo:42048:1,1997-08-03T14:00:00Z,27.9396,-96.8429,2.0,211.2472572,27.00792847,-99999.0,'11111222,11111222,99999999' 
TABS,ioos:station:wmo:42048:1,1997-08-03T14:30:00Z,27.9396,-96.8429,2.0,211.9051101,23.68886869,-99999.0,'11111222,11111222,99999999' 
TABS,ioos:station:wmo:42048:1,1997-08-03T15:00:00Z,27.9396,-96.8429,2.0,210.9679962,21.72715582,-99999.0,'11111222,11111222,99999999' 
TABS,ioos:station:wmo:42048:1,1997-08-03T15:30:00Z,27.9396,-96.8429,2.0,206.5533011,22.32490314,-99999.0,'11111222,11111222,99999999' 
TABS,ioos:station:wmo:42048:1,1997-08-03T16:00:00Z,27.9396,-96.8429,2.0,209.4688388,22.42077831,-99999.0,'11111222,11111222,99999999' 
TABS,ioos:station:wmo:42048:1,1997-08-03T16:30:00Z,27.9396,-96.8429,2.0,213.91292,21.36444008,-99999.0,'11111222,11111222,99999999' 
TABS,ioos:station:wmo:42048:1,1997-08-03T17:00:00Z,27.9396,-96.8429,2.0,215.6289473,23.27745691,-99999.0,'11111222,11111222,99999999' 
TABS,ioos:station:wmo:42048:1,1997-08-03T17:30:00Z,27.9396,-96.8429,2.0,211.3666524,29.48991183,-99999.0,'11111222,11111222,99999999' 
TABS,ioos:station:wmo:42048:1,1997-08-03T18:00:00Z,27.9396,-96.8429,2.0,218.3253619,32.67054484,-99999.0,'11111222,11111222,99999999' 
TABS,ioos:station:wmo:42048:1,1997-08-03T18:30:00Z,27.9396,-96.8429,2.0,215.5745295,34.06870265,-99999.0,'11111222,11111222,99999999' 
TABS,ioos:station:wmo:42048:1,1997-08-03T19:00:00Z,27.9396,-96.8429,2.0,221.9313678,31.44061386,-99999.0,'11111222,11111222,99999999' 
TABS,ioos:station:wmo:42048:1,1997-08-03T19:30:00Z,27.9396,-96.8429,2.0,225.4207618,28.86487831,-99999.0,'11111222,11111222,99999999' 
TABS,ioos:station:wmo:42048:1,1997-08-03T20:00:00Z,27.9396,-96.8429,2.0,222.4894326,28.89890136,-99999.0,'11111222,11111222,99999999' 
TABS,ioos:station:wmo:42048:1,1997-08-03T20:30:00Z,27.9396,-96.8429,2.0,223.9498073,28.55776602,-99999.0,'11111222,11111222,99999999' 
TABS,ioos:station:wmo:42048:1,1997-08-03T21:00:00Z,27.9396,-96.8429,2.0,224.0922587,26.34303134,-99999.0,'11111222,11111222,99999999' 
TABS,ioos:station:wmo:42048:1,1997-08-03T21:30:00Z,27.9396,-96.8429,2.0,232.6886245,27.53481614,-99999.0,'11111222,11111222,99999999' 
TABS,ioos:station:wmo:42048:1,1997-08-03T22:00:00Z,27.9396,-96.8429,2.0,242.5759352,26.85819242,-99999.0,'11111222,11111222,99999999' 
TABS,ioos:station:wmo:42048:1,1997-08-03T22:30:00Z,27.9396,-96.8429,2.0,240.0395869,24.76991118,-99999.0,'11111222,11111222,99999999' 
TABS,ioos:station:wmo:42048:1,1997-08-03T23:00:00Z,27.9396,-96.8429,2.0,235.2039459,25.58476304,-99999.0,'11111222,11111222,99999999' 
TABS,ioos:station:wmo:42048:1,1997-08-03T23:30:00Z,27.9396,-96.8429,2.0,238.1275978,25.96471837,-99999.0,'11111222,11111222,99999999' 
TABS,ioos:station:wmo:42048:1,1997-08-04T00:00:00Z,27.9396,-96.8429,2.0,240.0763231,23.89540751,-99999.0,'11111222,11111222,99999999' 
TABS,ioos:station:wmo:42048:1,1997-08-04T00:30:00Z,27.9396,-96.8429,2.0,239.3078732,21.3157993,-99999.0,'11111222,11111222,99999999' 
TABS,ioos:station:wmo:42048:1,1997-08-04T01:00:00Z,27.9396,-96.8429,2.0,234.220232,20.38769237,-99999.0,'11111222,11111222,99999999' 
TABS,ioos:station:wmo:42048:1,1997-08-04T01:30:00Z,27.9396,-96.8429,2.0,234.5126101,21.05013064,-99999.0,'11111222,11111222,99999999' 
TABS,ioos:station:wmo:42048:1,1997-08-04T02:00:00Z,27.9396,-96.8429,2.0,238.369172,19.60190042,-99999.0,'11111222,11111222,99999999' 
TABS,ioos:station:wmo:42048:1,1997-08-04T02:30:00Z,27.9396,-96.8429,2.0,226.8392946,19.60403275,-99999.0,'11111222,11111222,99999999' 
TABS,ioos:station:wmo:42048:1,1997-08-04T03:00:00Z,27.9396,-96.8429,2.0,226.5049763,19.91900098,-99999.0,'11111222,11111222,99999999' 
TABS,ioos:station:wmo:42048:1,1997-08-04T03:30:00Z,27.9396,-96.8429,2.0,222.27773,17.71887412,-99999.0,'11111222,11111222,99999999' 
TABS,ioos:station:wmo:42048:1,1997-08-04T04:00:00Z,27.9396,-96.8429,2.0,217.7518281,19.22427892,-99999.0,'11111222,11111222,99999999' 
TABS,ioos:station:wmo:42048:1,1997-08-04T04:30:00Z,27.9396,-96.8429,2.0,206.9688511,18.38988037,-99999.0,'11111222,11111222,99999999' 
TABS,ioos:station:wmo:42048:1,1997-08-04T05:00:00Z,27.9396,-96.8429,2.0,209.2368368,17.07529209,-99999.0,'11111222,11111222,99999999' 
TABS,ioos:station:wmo:42048:1,1997-08-04T05:30:00Z,27.9396,-96.8429,2.0,206.3263792,16.12218968,-99999.0,'11111222,11111222,99999999' 
TABS,ioos:station:wmo:42048:1,1997-08-04T06:00:00Z,27.9396,-96.8429,2.0,206.7840211,17.53090129,-99999.0,'11111222,11111222,99999999' 
TABS,ioos:station:wmo:42048:1,1997-08-04T06:30:00Z,27.9396,-96.8429,2.0,212.5172241,18.02598402,-99999.0,'11111222,11111222,99999999' 
TABS,ioos:station:wmo:42048:1,1997-08-04T07:00:00Z,27.9396,-96.8429,2.0,208.7957524,17.00253216,-99999.0,'11111222,11111222,99999999' 
TABS,ioos:station:wmo:42048:1,1997-08-04T07:30:00Z,27.9396,-96.8429,2.0,213.5076839,14.83553167,-99999.0,'11111222,11111222,99999999' 
TABS,ioos:station:wmo:42048:1,1997-08-04T08:00:00Z,27.9396,-96.8429,2.0,224.1550207,13.91030194,-99999.0,'11111222,11111222,99999999' 
TABS,ioos:station:wmo:42048:1,1997-08-04T08:30:00Z,27.9396,-96.8429,2.0,221.3720505,13.29904132,-99999.0,'11111222,11111222,99999999' 
TABS,ioos:station:wmo:42048:1,1997-08-04T09:00:00Z,27.9396,-96.8429,2.0,227.3427164,12.9721124,-99999.0,'11111222,11111222,99999999' 
TABS,ioos:station:wmo:42048:1,1997-08-04T09:30:00Z,27.9396,-96.8429,2.0,214.6046504,12.85404217,-99999.0,'11111222,11111222,99999999' 
TABS,ioos:station:wmo:42048:1,1997-08-04T10:00:00Z,27.9396,-96.8429,2.0,220.0456369,13.42862614,-99999.0,'11111222,11111222,99999999' 
TABS,ioos:station:wmo:42048:1,1997-08-04T10:30:00Z,27.9396,-96.8429,2.0,215.6791627,11.7445349,-99999.0,'11111222,11111222,99999999' 
TABS,ioos:station:wmo:42048:1,1997-08-04T11:00:00Z,27.9396,-96.8429,2.0,222.001064,12.03021612,-99999.0,'11111222,11111222,99999999' 
TABS,ioos:station:wmo:42048:1,1997-08-04T11:30:00Z,27.9396,-96.8429,2.0,212.4897594,11.65403364,-99999.0,'11111222,11111222,99999999' 
TABS,ioos:station:wmo:42048:1,1997-08-04T12:00:00Z,27.9396,-96.8429,2.0,210.2061566,11.54800849,-99999.0,'11111222,11111222,99999999' 
TABS,ioos:station:wmo:42048:1,1997-08-04T12:30:00Z,27.9396,-96.8429,2.0,206.9184509,10.86749741,-99999.0,'11111222,11111222,99999999' 
TABS,ioos:station:wmo:42048:1,1997-08-04T13:00:00Z,27.9396,-96.8429,2.0,213.2282229,10.32885279,-99999.0,'11111222,11111222,99999999' 
TABS,ioos:station:wmo:42048:1,1997-08-04T13:30:00Z,27.9396,-96.8429,2.0,208.5534118,9.665635002,-99999.0,'11133222,11111222,99999999' 
TABS,ioos:station:wmo:42048:1,1997-08-04T14:00:00Z,27.9396,-96.8429,2.0,208.4867301,10.00084996,-99999.0,'11111222,11111222,99999999' 
TABS,ioos:station:wmo:42048:1,1997-08-04T14:30:00Z,27.9396,-96.8429,2.0,207.7260178,9.930181267,-99999.0,'11133222,11111222,99999999' 
TABS,ioos:station:wmo:42048:1,1997-08-04T15:00:00Z,27.9396,-96.8429,2.0,198.4521794,10.36278437,-99999.0,'11111222,11111222,99999999' 
TABS,ioos:station:wmo:42048:1,1997-08-04T15:30:00Z,27.9396,-96.8429,2.0,198.193234,10.50517967,-99999.0,'11111222,11111222,99999999' 
TABS,ioos:station:wmo:42048:1,1997-08-04T16:00:00Z,27.9396,-96.8429,2.0,200.3652782,9.856089488,-99999.0,'11133222,11111222,99999999' 